Time,TemperatureF,DewpointF,PressureIn,WindDirection,WindDirectionDegrees,WindSpeedMPH,WindSpeedGustMPH,Humidity,HourlyPrecipIn,Conditions,Clouds,dailyrainin,SoftwareType,DateUTC
2013-08-20 00:01:00,64.9,26.1,30.00,North,353,0.0,0.0,23,0.00,,,0.00,WUHU216WMR968SP,2013-08-20 07:01:00,
2013-08-20 00:06:00,64.6,25.8,30.00,North,353,0.0,0.0,23,0.00,,,0.00,WUHU216WMR968SP,2013-08-20 07:06:00,
2013-08-20 00:11:00,64.6,25.8,30.00,WNW,303,2.2,3.6,23,0.00,,,0.00,WUHU216WMR968SP,2013-08-20 07:11:00,
2013-08-20 00:16:00,64.4,25.7,30.00,WNW,302,0.0,3.6,23,0.00,,,0.00,WUHU216WMR968SP,2013-08-20 07:16:00,
2013-08-20 00:21:00,64.0,25.3,30.00,WNW,302,0.0,2.2,23,0.00,,,0.00,WUHU216WMR968SP,2013-08-20 07:21:00,
2013-08-20 00:26:00,63.9,26.3,30.00,NW,304,0.0,0.0,24,0.00,,,0.00,WUHU216WMR968SP,2013-08-20 07:26:00,
2013-08-20 00:31:00,63.5,25.9,30.00,NW,304,0.0,0.0,24,0.00,,,0.00,WUHU216WMR968SP,2013-08-20 07:31:00,
2013-08-20 00:36:00,63.3,25.8,30.00,WNW,303,0.0,0.0,24,0.00,,,0.00,WUHU216WMR968SP,2013-08-20 07:36:00,
2013-08-20 00:41:00,63.3,25.8,30.00,WNW,303,0.0,0.0,24,0.00,,,0.00,WUHU216WMR968SP,2013-08-20 07:41:00,
2013-08-20 00:46:00,63.3,25.8,30.00,WNW,300,0.0,2.7,24,0.00,,,0.00,WUHU216WMR968SP,2013-08-20 07:46:00,
2013-08-20 00:51:00,63.1,25.6,30.00,WNW,301,0.0,2.7,24,0.00,,,0.00,WUHU216WMR968SP,2013-08-20 07:51:00,
2013-08-20 00:57:00,63.0,25.5,30.00,WNW,301,0.0,0.0,24,0.00,,,0.00,WUHU216WMR968SP,2013-08-20 07:57:00,
2013-08-20 01:02:00,62.6,25.2,30.00,WNW,301,0.0,0.0,24,0.00,,,0.00,WUHU216WMR968SP,2013-08-20 08:02:00,
2013-08-20 01:07:00,62.2,25.8,30.00,WNW,301,0.0,0.0,25,0.00,,,0.00,WUHU216WMR968SP,2013-08-20 08:07:00,
2013-08-20 01:12:00,62.1,25.7,30.00,South,185,0.0,3.1,25,0.00,,,0.00,WUHU216WMR968SP,2013-08-20 08:12:00,
2013-08-20 01:17:00,61.9,27.4,30.00,South,185,0.0,3.1,27,0.00,,,0.00,WUHU216WMR968SP,2013-08-20 08:17:00,
2013-08-20 01:22:00,61.7,27.2,30.03,South,185,0.0,0.0,27,0.00,,,0.00,WUHU216WMR968SP,2013-08-20 08:22:00,
2013-08-20 01:27:00,61.5,27.0,30.03,South,185,0.0,0.0,27,0.00,,,0.00,WUHU216WMR968SP,2013-08-20 08:27:00,
2013-08-20 01:32:00,61.3,26.8,30.03,South,185,0.0,0.0,27,0.00,,,0.00,WUHU216WMR968SP,2013-08-20 08:32:00,
2013-08-20 01:37:00,61.2,27.6,30.03,South,185,0.0,0.0,28,0.00,,,0.00,WUHU216WMR968SP,2013-08-20 08:37:00,
2013-08-20 01:42:00,61.2,28.5,30.03,South,185,0.0,0.0,29,0.00,,,0.00,WUHU216WMR968SP,2013-08-20 08:42:00,
2013-08-20 01:47:00,61.2,28.5,30.03,WNW,303,3.6,4.0,29,0.00,,,0.00,WUHU216WMR968SP,2013-08-20 08:47:00,
2013-08-20 01:52:00,61.2,28.5,30.03,North,357,0.0,4.5,29,0.00,,,0.00,WUHU216WMR968SP,2013-08-20 08:52:00,
2013-08-20 01:57:00,61.2,28.5,30.03,North,353,0.0,5.4,29,0.00,,,0.00,WUHU216WMR968SP,2013-08-20 08:57:00,
2013-08-20 02:02:00,61.0,28.3,30.03,North,350,0.0,5.4,29,0.00,,,0.00,WUHU216WMR968SP,2013-08-20 09:02:00,
2013-08-20 02:07:00,60.6,28.8,30.03,North,350,0.0,0.0,30,0.00,,,0.00,WUHU216WMR968SP,2013-08-20 09:07:00,
2013-08-20 02:12:00,60.4,28.6,30.03,North,350,0.0,0.0,30,0.00,,,0.00,WUHU216WMR968SP,2013-08-20 09:12:00,
2013-08-20 02:17:00,60.1,29.1,30.03,North,350,0.0,0.0,31,0.00,,,0.00,WUHU216WMR968SP,2013-08-20 09:17:00,
2013-08-20 02:22:00,59.7,29.6,30.03,North,350,0.0,0.0,32,0.00,,,0.00,WUHU216WMR968SP,2013-08-20 09:22:00,
2013-08-20 02:27:00,59.4,29.3,30.03,North,350,0.0,0.0,32,0.00,,,0.00,WUHU216WMR968SP,2013-08-20 09:27:00,
2013-08-20 02:32:00,59.0,30.4,30.03,North,353,0.0,0.0,34,0.00,,,0.00,WUHU216WMR968SP,2013-08-20 09:32:00,
2013-08-20 02:37:00,58.3,32.0,30.03,North,350,0.0,0.0,35,0.00,,,0.00,WUHU216WMR968SP,2013-08-20 09:37:00,
2013-08-20 02:42:00,58.1,32.0,30.03,North,353,0.0,0.0,35,0.00,,,0.00,WUHU216WMR968SP,2013-08-20 09:42:00,
2013-08-20 02:47:00,57.7,30.0,30.03,North,350,0.0,0.0,35,0.00,,,0.00,WUHU216WMR968SP,2013-08-20 09:47:00,
2013-08-20 02:52:00,57.6,30.6,30.03,North,350,0.0,0.0,36,0.00,,,0.00,WUHU216WMR968SP,2013-08-20 09:52:00,
2013-08-20 03:37:00,55.8,32.0,30.03,North,350,0.0,0.0,40,0.00,,,0.00,WUHU216WMR968SP,2013-08-20 10:37:00,
2013-08-20 03:42:00,55.6,32.0,30.03,North,350,0.0,0.0,40,0.00,,,0.00,WUHU216WMR968SP,2013-08-20 10:42:00,
2013-08-20 03:47:00,55.4,32.0,30.03,North,350,0.0,0.0,41,0.00,,,0.00,WUHU216WMR968SP,2013-08-20 10:47:00,
2013-08-20 03:52:00,55.4,32.0,30.03,North,350,0.0,0.0,41,0.00,,,0.00,WUHU216WMR968SP,2013-08-20 10:52:00,
2013-08-20 03:57:00,55.2,32.0,30.03,North,353,0.0,0.0,42,0.00,,,0.00,WUHU216WMR968SP,2013-08-20 10:57:00,
2013-08-20 04:02:00,55.2,33.8,30.03,North,350,0.0,0.0,43,0.00,,,0.00,WUHU216WMR968SP,2013-08-20 11:02:00,
2013-08-20 04:07:00,55.0,33.8,30.03,North,353,0.0,0.0,43,0.00,,,0.00,WUHU216WMR968SP,2013-08-20 11:07:00,
2013-08-20 04:12:00,55.0,33.8,30.03,North,350,0.0,0.0,43,0.00,,,0.00,WUHU216WMR968SP,2013-08-20 11:12:00,
2013-08-20 04:17:00,54.9,33.8,30.03,North,350,0.0,0.0,44,0.00,,,0.00,WUHU216WMR968SP,2013-08-20 11:17:00,
2013-08-20 04:22:00,54.9,33.8,30.03,North,350,0.0,0.0,44,0.00,,,0.00,WUHU216WMR968SP,2013-08-20 11:22:00,
2013-08-20 04:27:00,54.7,33.8,30.03,North,353,0.0,0.0,44,0.00,,,0.00,WUHU216WMR968SP,2013-08-20 11:27:00,
2013-08-20 04:32:00,54.7,33.8,30.03,North,353,0.0,0.0,44,0.00,,,0.00,WUHU216WMR968SP,2013-08-20 11:32:00,
2013-08-20 04:37:00,54.5,33.8,30.03,North,353,0.0,0.0,44,0.00,,,0.00,WUHU216WMR968SP,2013-08-20 11:37:00,
2013-08-20 04:42:00,54.3,32.0,30.03,North,353,0.0,0.0,44,0.00,,,0.00,WUHU216WMR968SP,2013-08-20 11:42:00,
2013-08-20 04:47:00,54.0,32.0,30.03,North,353,0.0,0.0,44,0.00,,,0.00,WUHU216WMR968SP,2013-08-20 11:47:00,
2013-08-20 04:52:00,53.8,32.0,30.03,North,350,0.0,0.0,44,0.00,,,0.00,WUHU216WMR968SP,2013-08-20 11:52:00,
2013-08-20 04:57:00,53.6,32.0,30.03,North,350,0.0,0.0,44,0.00,,,0.00,WUHU216WMR968SP,2013-08-20 11:57:00,
2013-08-20 05:02:00,53.4,32.0,30.03,North,353,0.0,0.0,45,0.00,,,0.00,WUHU216WMR968SP,2013-08-20 12:02:00,
2013-08-20 05:07:00,53.2,32.0,30.03,North,350,0.0,0.0,45,0.00,,,0.00,WUHU216WMR968SP,2013-08-20 12:07:00,
2013-08-20 05:12:00,53.2,33.8,30.03,North,350,0.0,0.0,46,0.00,,,0.00,WUHU216WMR968SP,2013-08-20 12:12:00,
2013-08-20 05:17:00,53.2,33.8,30.03,North,350,0.0,0.0,46,0.00,,,0.00,WUHU216WMR968SP,2013-08-20 12:17:00,
2013-08-20 05:22:00,53.2,33.8,30.03,North,353,0.0,0.0,46,0.00,,,0.00,WUHU216WMR968SP,2013-08-20 12:22:00,
2013-08-20 05:27:00,53.2,33.8,30.03,North,350,0.0,0.0,46,0.00,,,0.00,WUHU216WMR968SP,2013-08-20 12:27:00,
2013-08-20 05:32:00,53.2,33.8,30.03,North,350,0.0,0.0,47,0.00,,,0.00,WUHU216WMR968SP,2013-08-20 12:32:00,
2013-08-20 05:37:00,53.1,33.8,30.00,North,353,0.0,0.0,47,0.00,,,0.00,WUHU216WMR968SP,2013-08-20 12:37:00,
2013-08-20 05:42:00,52.9,33.8,30.00,North,350,0.0,0.0,47,0.00,,,0.00,WUHU216WMR968SP,2013-08-20 12:42:00,
2013-08-20 05:47:00,52.9,33.8,30.00,North,353,0.0,0.0,47,0.00,,,0.00,WUHU216WMR968SP,2013-08-20 12:47:00,
2013-08-20 05:52:00,52.9,33.8,30.03,North,353,0.0,0.0,47,0.00,,,0.00,WUHU216WMR968SP,2013-08-20 12:52:00,
2013-08-20 05:57:00,52.9,33.8,30.03,North,353,0.0,0.0,47,0.00,,,0.00,WUHU216WMR968SP,2013-08-20 12:57:00,
2013-08-20 06:02:00,53.1,33.8,30.03,North,350,0.0,0.0,47,0.00,,,0.00,WUHU216WMR968SP,2013-08-20 13:02:00,
2013-08-20 06:07:00,53.1,33.8,30.03,North,353,0.0,0.0,47,0.00,,,0.00,WUHU216WMR968SP,2013-08-20 13:07:00,
2013-08-20 06:12:00,53.1,33.8,30.03,North,353,0.0,0.0,48,0.00,,,0.00,WUHU216WMR968SP,2013-08-20 13:12:00,
2013-08-20 06:17:00,53.2,33.8,30.03,North,353,0.0,0.0,48,0.00,,,0.00,WUHU216WMR968SP,2013-08-20 13:17:00,
2013-08-20 06:22:00,53.2,33.8,30.03,North,353,0.0,0.0,48,0.00,,,0.00,WUHU216WMR968SP,2013-08-20 13:22:00,
2013-08-20 06:27:00,53.2,33.8,30.03,North,353,0.0,0.0,48,0.00,,,0.00,WUHU216WMR968SP,2013-08-20 13:27:00,
2013-08-20 06:32:00,53.2,33.8,30.03,North,353,0.0,0.0,48,0.00,,,0.00,WUHU216WMR968SP,2013-08-20 13:32:00,
2013-08-20 06:37:00,53.4,33.8,30.03,North,353,0.0,0.0,48,0.00,,,0.00,WUHU216WMR968SP,2013-08-20 13:37:00,
2013-08-20 06:42:00,53.4,33.8,30.03,North,353,0.0,0.0,48,0.00,,,0.00,WUHU216WMR968SP,2013-08-20 13:42:00,
2013-08-20 06:47:00,53.6,33.8,30.03,North,353,0.0,0.0,47,0.00,,,0.00,WUHU216WMR968SP,2013-08-20 13:47:00,
2013-08-20 06:52:00,54.0,33.8,30.03,North,353,0.0,0.0,47,0.00,,,0.00,WUHU216WMR968SP,2013-08-20 13:52:00,
2013-08-20 06:57:00,54.1,33.8,30.03,North,353,0.0,0.0,47,0.00,,,0.00,WUHU216WMR968SP,2013-08-20 13:57:00,
2013-08-20 07:02:00,54.5,35.6,30.03,North,353,0.0,0.0,47,0.00,,,0.00,WUHU216WMR968SP,2013-08-20 14:02:00,
2013-08-20 07:07:00,54.5,35.6,30.06,North,353,0.0,0.0,47,0.00,,,0.00,WUHU216WMR968SP,2013-08-20 14:07:00,
2013-08-20 07:12:00,54.7,35.6,30.06,North,353,0.0,0.0,47,0.00,,,0.00,WUHU216WMR968SP,2013-08-20 14:12:00,
2013-08-20 07:17:00,54.9,35.6,30.06,North,353,0.0,0.0,46,0.00,,,0.00,WUHU216WMR968SP,2013-08-20 14:17:00,
2013-08-20 07:22:00,55.2,35.6,30.06,North,350,0.0,0.0,46,0.00,,,0.00,WUHU216WMR968SP,2013-08-20 14:22:00,
2013-08-20 07:27:00,55.4,35.6,30.06,North,350,0.0,0.0,46,0.00,,,0.00,WUHU216WMR968SP,2013-08-20 14:27:00,
2013-08-20 07:32:00,55.6,35.6,30.06,North,353,0.0,0.0,46,0.00,,,0.00,WUHU216WMR968SP,2013-08-20 14:32:00,
2013-08-20 07:37:00,55.8,35.6,30.06,North,353,0.0,0.0,46,0.00,,,0.00,WUHU216WMR968SP,2013-08-20 14:37:00,
2013-08-20 07:42:00,55.9,35.6,30.06,ESE,105,0.0,0.0,47,0.00,,,0.00,WUHU216WMR968SP,2013-08-20 14:42:00,
2013-08-20 07:47:00,56.1,35.6,30.06,ESE,116,0.0,2.7,47,0.00,,,0.00,WUHU216WMR968SP,2013-08-20 14:47:00,
2013-08-20 07:52:00,56.3,37.4,30.06,ESE,117,0.0,2.7,46,0.00,,,0.00,WUHU216WMR968SP,2013-08-20 14:52:00,
2013-08-20 07:57:00,56.7,37.4,30.06,ESE,116,0.0,0.0,46,0.00,,,0.00,WUHU216WMR968SP,2013-08-20 14:57:00,
2013-08-20 08:02:00,56.8,37.4,30.06,ESE,117,0.0,0.0,46,0.00,,,0.00,WUHU216WMR968SP,2013-08-20 15:02:00,
2013-08-20 08:07:00,57.2,35.6,30.06,ESE,116,0.0,0.0,45,0.00,,,0.00,WUHU216WMR968SP,2013-08-20 15:07:00,
2013-08-20 08:12:00,57.2,35.6,30.06,ESE,116,0.0,2.7,45,0.00,,,0.00,WUHU216WMR968SP,2013-08-20 15:12:00,
2013-08-20 08:17:00,57.2,35.6,30.06,ESE,115,0.0,2.7,45,0.00,,,0.00,WUHU216WMR968SP,2013-08-20 15:17:00,
2013-08-20 08:22:00,57.4,35.6,30.06,SW,217,0.0,0.0,45,0.00,,,0.00,WUHU216WMR968SP,2013-08-20 15:22:00,
2013-08-20 08:27:00,57.6,35.6,30.06,SW,217,0.0,0.0,44,0.00,,,0.00,WUHU216WMR968SP,2013-08-20 15:27:00,
2013-08-20 08:32:00,57.7,35.6,30.06,South,179,0.0,0.0,44,0.00,,,0.00,WUHU216WMR968SP,2013-08-20 15:32:00,
2013-08-20 08:37:00,57.7,35.6,30.06,South,178,0.0,0.0,43,0.00,,,0.00,WUHU216WMR968SP,2013-08-20 15:37:00,
2013-08-20 08:42:00,57.9,33.8,30.06,SSE,157,0.0,0.0,42,0.00,,,0.00,WUHU216WMR968SP,2013-08-20 15:42:00,
2013-08-20 08:47:00,57.9,33.8,30.06,SSW,192,0.0,0.0,42,0.00,,,0.00,WUHU216WMR968SP,2013-08-20 15:47:00,
2013-08-20 08:52:00,57.9,33.8,30.06,SSW,193,0.0,0.0,41,0.00,,,0.00,WUHU216WMR968SP,2013-08-20 15:52:00,
2013-08-20 08:57:00,57.9,33.8,30.06,SSW,192,0.0,0.0,41,0.00,,,0.00,WUHU216WMR968SP,2013-08-20 15:57:00,
2013-08-20 09:02:00,57.9,33.8,30.06,SSW,193,0.0,0.0,41,0.00,,,0.00,WUHU216WMR968SP,2013-08-20 16:02:00,
2013-08-20 09:07:00,58.1,35.6,30.06,SSW,194,0.0,0.0,40,0.00,,,0.00,WUHU216WMR968SP,2013-08-20 16:07:00,
2013-08-20 09:12:00,58.3,35.6,30.06,SSW,193,0.0,0.0,40,0.00,,,0.00,WUHU216WMR968SP,2013-08-20 16:12:00,
2013-08-20 09:17:00,58.3,35.6,30.06,SSW,198,0.0,2.7,40,0.00,,,0.00,WUHU216WMR968SP,2013-08-20 16:17:00,
2013-08-20 09:22:00,58.3,33.8,30.06,SSW,199,0.0,2.7,39,0.00,,,0.00,WUHU216WMR968SP,2013-08-20 16:22:00,
2013-08-20 09:27:00,58.3,35.6,30.06,SE,143,0.0,4.0,40,0.00,,,0.00,WUHU216WMR968SP,2013-08-20 16:27:00,
2013-08-20 09:32:00,58.3,35.6,30.06,SE,130,3.1,4.0,40,0.00,,,0.00,WUHU216WMR968SP,2013-08-20 16:32:00,
2013-08-20 09:37:00,58.5,35.6,30.03,ESE,121,3.1,4.0,40,0.00,,,0.00,WUHU216WMR968SP,2013-08-20 16:37:00,
2013-08-20 09:42:00,58.8,35.6,30.03,SE,135,0.0,4.0,40,0.00,,,0.00,WUHU216WMR968SP,2013-08-20 16:42:00,
2013-08-20 09:47:00,59.2,33.8,30.03,East,87,0.0,3.1,38,0.00,,,0.00,WUHU216WMR968SP,2013-08-20 16:47:00,
2013-08-20 09:52:00,59.7,33.8,30.03,East,87,0.0,3.1,38,0.00,,,0.00,WUHU216WMR968SP,2013-08-20 16:52:00,
2013-08-20 09:57:00,59.9,33.8,30.03,SSW,201,0.0,0.0,36,0.00,,,0.00,WUHU216WMR968SP,2013-08-20 16:57:00,
2013-08-20 10:02:00,60.1,33.8,30.03,WNW,287,3.1,3.6,36,0.00,,,0.00,WUHU216WMR968SP,2013-08-20 17:02:00,
2013-08-20 10:07:00,60.3,33.8,30.03,WSW,247,0.0,3.6,36,0.00,,,0.00,WUHU216WMR968SP,2013-08-20 17:07:00,
2013-08-20 10:12:00,60.6,33.8,30.03,SW,233,0.0,3.1,35,0.00,,,0.00,WUHU216WMR968SP,2013-08-20 17:12:00,
2013-08-20 10:17:00,61.2,33.8,30.03,SE,139,3.1,4.0,35,0.00,,,0.00,WUHU216WMR968SP,2013-08-20 17:17:00,
2013-08-20 10:22:00,61.9,33.8,30.03,SE,133,2.7,4.0,35,0.00,,,0.00,WUHU216WMR968SP,2013-08-20 17:22:00,
2013-08-20 10:27:00,62.4,33.8,30.03,WNW,284,0.0,4.0,34,0.00,,,0.00,WUHU216WMR968SP,2013-08-20 17:27:00,
2013-08-20 10:32:00,63.3,32.0,30.03,WNW,295,2.7,3.6,31,0.00,,,0.00,WUHU216WMR968SP,2013-08-20 17:32:00,
2013-08-20 10:37:00,64.4,32.0,30.03,West,277,0.0,4.0,30,0.00,,,0.00,WUHU216WMR968SP,2013-08-20 17:37:00,
2013-08-20 10:42:00,64.9,29.0,30.03,WNW,297,3.6,6.3,26,0.00,,,0.00,WUHU216WMR968SP,2013-08-20 17:42:00,
2013-08-20 10:47:00,65.5,29.5,30.03,NW,319,2.2,6.3,26,0.00,,,0.00,WUHU216WMR968SP,2013-08-20 17:47:00,
2013-08-20 10:52:00,66.2,29.2,30.03,ENE,67,2.7,4.0,25,0.00,,,0.00,WUHU216WMR968SP,2013-08-20 17:52:00,
2013-08-20 10:57:00,66.9,28.8,30.03,WSW,251,3.1,6.7,24,0.00,,,0.00,WUHU216WMR968SP,2013-08-20 17:57:00,
2013-08-20 11:02:00,66.7,28.6,30.03,West,281,2.2,6.7,24,0.00,,,0.00,WUHU216WMR968SP,2013-08-20 18:02:00,
2013-08-20 11:07:00,67.5,29.3,30.00,WSW,251,2.7,5.8,24,0.00,,,0.00,WUHU216WMR968SP,2013-08-20 18:07:00,
2013-08-20 11:12:00,68.0,28.7,30.00,SE,146,3.6,4.0,23,0.00,,,0.00,WUHU216WMR968SP,2013-08-20 18:12:00,
2013-08-20 11:18:00,67.8,28.5,30.00,South,181,0.0,6.3,23,0.00,,,0.00,WUHU216WMR968SP,2013-08-20 18:18:00,
2013-08-20 11:23:00,68.9,32.0,30.03,SSE,155,0.0,6.3,24,0.00,,,0.00,WUHU216WMR968SP,2013-08-20 18:23:00,
2013-08-20 11:28:00,68.9,28.4,30.03,West,260,4.9,5.8,22,0.00,,,0.00,WUHU216WMR968SP,2013-08-20 18:28:00,
2013-08-20 11:33:00,68.7,28.2,30.03,WNW,284,6.3,7.6,22,0.00,,,0.00,WUHU216WMR968SP,2013-08-20 18:33:00,
2013-08-20 11:38:00,68.9,28.4,30.00,WSW,249,3.1,7.6,22,0.00,,,0.00,WUHU216WMR968SP,2013-08-20 18:38:00,
2013-08-20 11:43:00,69.4,28.8,30.00,SW,215,2.7,7.6,22,0.00,,,0.00,WUHU216WMR968SP,2013-08-20 18:43:00,
2013-08-20 11:48:00,70.2,29.5,30.00,SSW,212,0.0,7.6,22,0.00,,,0.00,WUHU216WMR968SP,2013-08-20 18:48:00,
2013-08-20 11:53:00,70.7,29.9,30.00,SW,236,3.6,7.6,22,0.00,,,0.00,WUHU216WMR968SP,2013-08-20 18:53:00,
2013-08-20 11:58:00,70.9,26.5,30.00,SSW,196,3.1,7.6,19,0.00,,,0.00,WUHU216WMR968SP,2013-08-20 18:58:00,
2013-08-20 12:03:00,71.8,27.3,30.00,West,281,2.2,6.3,19,0.00,,,0.00,WUHU216WMR968SP,2013-08-20 19:03:00,
2013-08-20 12:08:00,72.0,27.4,30.00,NNE,31,2.7,6.3,19,0.00,,,0.00,WUHU216WMR968SP,2013-08-20 19:08:00,
2013-08-20 12:13:00,72.1,27.5,30.00,West,260,4.0,10.5,19,0.00,,,0.00,WUHU216WMR968SP,2013-08-20 19:13:00,
2013-08-20 12:18:00,72.3,27.7,30.00,West,262,3.1,10.5,19,0.00,,,0.00,WUHU216WMR968SP,2013-08-20 19:18:00,
2013-08-20 12:23:00,73.0,24.1,30.00,NW,315,3.6,8.3,16,0.00,,,0.00,WUHU216WMR968SP,2013-08-20 19:23:00,
2013-08-20 12:28:00,73.6,24.6,30.00,NW,305,4.0,7.6,16,0.00,,,0.00,WUHU216WMR968SP,2013-08-20 19:28:00,
2013-08-20 12:33:00,73.2,24.3,30.00,NE,46,6.7,8.7,16,0.00,,,0.00,WUHU216WMR968SP,2013-08-20 19:33:00,
2013-08-20 12:38:00,73.6,24.6,30.00,SSW,211,2.2,8.7,16,0.00,,,0.00,WUHU216WMR968SP,2013-08-20 19:38:00,
2013-08-20 12:43:00,73.2,24.3,30.00,WSW,246,5.8,8.7,16,0.00,,,0.00,WUHU216WMR968SP,2013-08-20 19:43:00,
2013-08-20 12:48:00,73.4,24.4,30.00,WSW,254,0.0,8.7,16,0.00,,,0.00,WUHU216WMR968SP,2013-08-20 19:48:00,
2013-08-20 12:53:00,73.9,24.8,30.00,SSW,210,2.7,8.3,16,0.00,,,0.00,WUHU216WMR968SP,2013-08-20 19:53:00,
2013-08-20 12:58:00,74.1,25.0,30.00,NNW,327,4.9,8.7,16,0.00,,,0.00,WUHU216WMR968SP,2013-08-20 19:58:00,
2013-08-20 13:03:00,74.5,25.3,30.00,WNW,303,5.4,8.7,16,0.00,,,0.00,WUHU216WMR968SP,2013-08-20 20:03:00,
2013-08-20 13:08:00,74.5,25.3,29.97,WNW,286,2.7,8.7,16,0.00,,,0.00,WUHU216WMR968SP,2013-08-20 20:08:00,
2013-08-20 13:13:00,74.8,25.5,29.97,NW,304,4.0,8.3,16,0.00,,,0.00,WUHU216WMR968SP,2013-08-20 20:13:00,
2013-08-20 13:18:00,75.7,24.7,29.97,SW,219,5.4,8.7,15,0.00,,,0.00,WUHU216WMR968SP,2013-08-20 20:18:00,
2013-08-20 13:23:00,75.9,24.9,29.97,NNW,346,3.1,8.7,15,0.00,,,0.00,WUHU216WMR968SP,2013-08-20 20:23:00,
2013-08-20 13:28:00,75.9,24.9,29.97,West,279,4.0,7.2,15,0.00,,,0.00,WUHU216WMR968SP,2013-08-20 20:28:00,
2013-08-20 13:33:00,75.7,24.7,29.97,SW,221,2.7,8.1,15,0.00,,,0.00,WUHU216WMR968SP,2013-08-20 20:33:00,
2013-08-20 13:38:00,75.6,24.6,29.97,SW,220,2.7,8.1,15,0.00,,,0.00,WUHU216WMR968SP,2013-08-20 20:38:00,
2013-08-20 13:43:00,75.6,24.6,29.97,SSW,208,5.8,8.1,15,0.00,,,0.00,WUHU216WMR968SP,2013-08-20 20:43:00,
2013-08-20 13:48:00,75.6,24.6,29.97,SW,230,5.8,8.3,15,0.00,,,0.00,WUHU216WMR968SP,2013-08-20 20:48:00,
2013-08-20 13:53:00,76.3,25.2,29.97,SW,219,4.0,8.3,15,0.00,,,0.00,WUHU216WMR968SP,2013-08-20 20:53:00,
2013-08-20 13:58:00,76.6,25.4,29.97,WSW,244,5.8,8.7,15,0.00,,,0.00,WUHU216WMR968SP,2013-08-20 20:58:00,
2013-08-20 14:03:00,76.3,25.2,29.97,SSW,209,4.0,8.7,15,0.00,,,0.00,WUHU216WMR968SP,2013-08-20 21:03:00,
2013-08-20 14:08:00,75.7,24.7,29.97,WSW,247,4.9,8.7,15,0.00,,,0.00,WUHU216WMR968SP,2013-08-20 21:08:00,
2013-08-20 14:13:00,76.1,25.0,29.97,SSW,211,2.2,8.3,15,0.00,,,0.00,WUHU216WMR968SP,2013-08-20 21:13:00,
2013-08-20 14:18:00,75.9,24.9,29.97,SW,219,2.2,8.3,15,0.00,,,0.00,WUHU216WMR968SP,2013-08-20 21:18:00,
2013-08-20 14:23:00,76.3,25.2,29.97,North,353,5.8,8.7,15,0.00,,,0.00,WUHU216WMR968SP,2013-08-20 21:23:00,
2013-08-20 14:28:00,76.6,25.4,29.97,SW,224,0.0,8.7,15,0.00,,,0.00,WUHU216WMR968SP,2013-08-20 21:28:00,
2013-08-20 14:33:00,76.8,25.6,29.97,NW,319,3.1,7.2,15,0.00,,,0.00,WUHU216WMR968SP,2013-08-20 21:33:00,
2013-08-20 14:38:00,77.4,26.1,29.97,NNW,332,3.6,10.5,15,0.00,,,0.00,WUHU216WMR968SP,2013-08-20 21:38:00,
2013-08-20 14:43:00,77.5,26.1,29.97,SSW,202,4.5,10.5,15,0.00,,,0.00,WUHU216WMR968SP,2013-08-20 21:43:00,
2013-08-20 14:48:00,77.7,26.3,29.97,WSW,253,4.0,10.1,15,0.00,,,0.00,WUHU216WMR968SP,2013-08-20 21:48:00,
2013-08-20 14:53:00,78.4,26.9,29.94,WSW,240,3.1,7.6,15,0.00,,,0.00,WUHU216WMR968SP,2013-08-20 21:53:00,
2013-08-20 14:58:00,78.3,26.8,29.94,SW,233,4.0,8.7,15,0.00,,,0.00,WUHU216WMR968SP,2013-08-20 21:58:00,
2013-08-20 15:03:00,78.1,26.6,29.94,SSW,198,4.0,8.7,15,0.00,,,0.00,WUHU216WMR968SP,2013-08-20 22:03:00,
2013-08-20 15:08:00,78.3,26.8,29.94,South,191,3.1,6.3,15,0.00,,,0.00,WUHU216WMR968SP,2013-08-20 22:08:00,
2013-08-20 15:13:00,78.3,26.8,29.94,SSW,209,3.1,6.3,15,0.00,,,0.00,WUHU216WMR968SP,2013-08-20 22:13:00,
2013-08-20 15:18:00,78.8,27.2,29.94,WSW,243,4.9,10.5,15,0.00,,,0.00,WUHU216WMR968SP,2013-08-20 22:18:00,
2013-08-20 15:23:00,79.0,27.3,29.94,SSW,199,5.4,10.5,15,0.00,,,0.00,WUHU216WMR968SP,2013-08-20 22:23:00,
2013-08-20 15:28:00,79.0,27.3,29.94,NW,308,5.8,11.0,15,0.00,,,0.00,WUHU216WMR968SP,2013-08-20 22:28:00,
2013-08-20 15:33:00,79.9,28.1,29.94,WSW,244,2.2,11.0,15,0.00,,,0.00,WUHU216WMR968SP,2013-08-20 22:33:00,
2013-08-20 15:38:00,80.2,28.3,29.94,WSW,251,3.1,11.9,15,0.00,,,0.00,WUHU216WMR968SP,2013-08-20 22:38:00,
2013-08-20 15:43:00,80.6,26.9,29.94,West,263,3.1,11.9,14,0.00,,,0.00,WUHU216WMR968SP,2013-08-20 22:43:00,
2013-08-20 15:48:00,80.4,28.5,29.94,South,177,4.0,8.1,15,0.00,,,0.00,WUHU216WMR968SP,2013-08-20 22:48:00,
2013-08-20 15:53:00,80.4,28.5,29.91,West,271,4.9,8.1,15,0.00,,,0.00,WUHU216WMR968SP,2013-08-20 22:53:00,
2013-08-20 15:58:00,81.1,27.3,29.91,West,281,4.9,8.3,14,0.00,,,0.00,WUHU216WMR968SP,2013-08-20 22:58:00,
2013-08-20 16:03:00,81.3,27.5,29.91,NNW,343,3.6,11.0,14,0.00,,,0.00,WUHU216WMR968SP,2013-08-20 23:03:00,
2013-08-20 16:08:00,81.7,27.8,29.91,WSW,252,5.8,11.0,14,0.00,,,0.00,WUHU216WMR968SP,2013-08-20 23:08:00,
2013-08-20 16:13:00,81.5,27.6,29.91,WSW,242,4.9,8.1,14,0.00,,,0.00,WUHU216WMR968SP,2013-08-20 23:13:00,
2013-08-20 16:18:00,81.7,27.8,29.91,NNW,327,2.7,7.2,14,0.00,,,0.00,WUHU216WMR968SP,2013-08-20 23:18:00,
2013-08-20 16:23:00,82.0,28.0,29.91,NW,314,5.8,8.1,14,0.00,,,0.00,WUHU216WMR968SP,2013-08-20 23:23:00,
2013-08-20 16:28:00,81.7,27.8,29.91,SW,231,5.8,8.7,14,0.00,,,0.00,WUHU216WMR968SP,2013-08-20 23:28:00,
2013-08-20 16:33:00,81.7,27.8,29.91,WNW,301,5.4,8.7,14,0.00,,,0.00,WUHU216WMR968SP,2013-08-20 23:33:00,
2013-08-20 16:38:00,81.9,27.9,29.91,NW,320,6.3,8.3,14,0.00,,,0.00,WUHU216WMR968SP,2013-08-20 23:38:00,
2013-08-20 16:43:00,81.5,27.6,29.91,WSW,253,4.0,8.3,14,0.00,,,0.00,WUHU216WMR968SP,2013-08-20 23:43:00,
2013-08-20 16:48:00,81.9,27.9,29.91,SW,228,0.0,6.3,14,0.00,,,0.00,WUHU216WMR968SP,2013-08-20 23:48:00,
2013-08-20 16:53:00,82.0,28.0,29.91,SW,217,3.6,7.6,14,0.00,,,0.00,WUHU216WMR968SP,2013-08-20 23:53:00,
2013-08-20 16:58:00,81.7,27.8,29.91,WSW,239,3.1,8.7,14,0.00,,,0.00,WUHU216WMR968SP,2013-08-20 23:58:00,
2013-08-20 17:03:00,81.5,27.6,29.91,WNW,302,6.3,8.7,14,0.00,,,0.00,WUHU216WMR968SP,2013-08-21 00:03:00,
2013-08-20 17:08:00,81.9,27.9,29.91,SW,236,2.7,8.7,14,0.00,,,0.00,WUHU216WMR968SP,2013-08-21 00:08:00,
2013-08-20 17:13:00,82.2,28.2,29.91,NW,310,0.0,8.7,14,0.00,,,0.00,WUHU216WMR968SP,2013-08-21 00:13:00,
2013-08-20 17:18:00,81.9,27.9,29.91,NW,319,4.0,8.1,14,0.00,,,0.00,WUHU216WMR968SP,2013-08-21 00:18:00,
2013-08-20 17:23:00,81.5,27.6,29.91,West,268,3.6,8.1,14,0.00,,,0.00,WUHU216WMR968SP,2013-08-21 00:23:00,
2013-08-20 17:28:00,81.5,27.6,29.91,West,271,3.1,9.6,14,0.00,,,0.00,WUHU216WMR968SP,2013-08-21 00:28:00,
2013-08-20 17:33:00,81.5,27.6,29.91,SW,235,3.1,10.1,14,0.00,,,0.00,WUHU216WMR968SP,2013-08-21 00:33:00,
2013-08-20 17:38:00,81.7,27.8,29.88,WSW,238,3.6,10.1,14,0.00,,,0.00,WUHU216WMR968SP,2013-08-21 00:38:00,
2013-08-20 17:43:00,81.7,27.8,29.88,South,172,2.2,10.5,14,0.00,,,0.00,WUHU216WMR968SP,2013-08-21 00:43:00,
2013-08-20 17:48:00,82.0,28.0,29.88,West,280,3.6,10.5,14,0.00,,,0.00,WUHU216WMR968SP,2013-08-21 00:48:00,
2013-08-20 17:53:00,82.0,28.0,29.88,NW,306,4.5,8.3,14,0.00,,,0.00,WUHU216WMR968SP,2013-08-21 00:53:00,
2013-08-20 17:58:00,81.7,27.8,29.88,ESE,118,0.0,7.6,14,0.00,,,0.00,WUHU216WMR968SP,2013-08-21 00:58:00,
2013-08-20 18:03:00,80.4,28.5,29.88,WNW,292,0.0,4.9,15,0.00,,,0.00,WUHU216WMR968SP,2013-08-21 01:03:00,
2013-08-20 18:08:00,80.2,28.3,29.88,SE,145,0.0,8.3,15,0.00,,,0.00,WUHU216WMR968SP,2013-08-21 01:08:00,
2013-08-20 18:13:00,79.7,27.9,29.88,West,271,3.1,8.3,15,0.00,,,0.00,WUHU216WMR968SP,2013-08-21 01:13:00,
2013-08-20 18:18:00,79.5,27.7,29.88,WNW,303,0.0,7.2,15,0.00,,,0.00,WUHU216WMR968SP,2013-08-21 01:18:00,
2013-08-20 18:19:00,79.5,27.7,29.88,NNW,337,3.6,7.2,15,0.00,,,0.00,WUHU216WMR968SP,2013-08-21 01:19:00,
2013-08-20 18:24:00,79.3,27.6,29.88,WSW,246,0.0,5.8,15,0.00,,,0.00,WUHU216WMR968SP,2013-08-21 01:24:00,
2013-08-20 18:29:00,79.3,27.6,29.88,WSW,238,4.5,6.3,15,0.00,,,0.00,WUHU216WMR968SP,2013-08-21 01:29:00,
2013-08-20 18:34:00,79.5,27.7,29.88,WSW,249,0.0,8.1,15,0.00,,,0.00,WUHU216WMR968SP,2013-08-21 01:34:00,
2013-08-20 18:39:00,79.5,27.7,29.88,NNW,333,3.6,8.1,15,0.00,,,0.00,WUHU216WMR968SP,2013-08-21 01:39:00,
2013-08-20 18:44:00,79.3,27.6,29.88,South,169,0.0,5.4,15,0.00,,,0.00,WUHU216WMR968SP,2013-08-21 01:44:00,
2013-08-20 18:49:00,78.6,27.0,29.88,NNW,341,2.2,4.9,15,0.00,,,0.00,WUHU216WMR968SP,2013-08-21 01:49:00,
2013-08-20 18:54:00,78.6,27.0,29.88,West,277,2.7,6.3,15,0.00,,,0.00,WUHU216WMR968SP,2013-08-21 01:54:00,
2013-08-20 18:59:00,78.6,27.0,29.88,North,357,0.0,6.3,15,0.00,,,0.00,WUHU216WMR968SP,2013-08-21 01:59:00,
2013-08-20 19:04:00,78.4,26.9,29.88,West,270,4.0,8.1,15,0.00,,,0.00,WUHU216WMR968SP,2013-08-21 02:04:00,
2013-08-20 19:09:00,78.1,26.6,29.88,West,268,0.0,8.1,15,0.00,,,0.00,WUHU216WMR968SP,2013-08-21 02:09:00,
2013-08-20 19:14:00,78.1,26.6,29.88,WNW,288,4.0,8.7,15,0.00,,,0.00,WUHU216WMR968SP,2013-08-21 02:14:00,
2013-08-20 19:19:00,77.9,26.5,29.88,WSW,243,0.0,8.7,15,0.00,,,0.00,WUHU216WMR968SP,2013-08-21 02:19:00,
2013-08-20 19:24:00,77.4,26.1,29.88,South,187,0.0,4.0,15,0.00,,,0.00,WUHU216WMR968SP,2013-08-21 02:24:00,
2013-08-20 19:29:00,76.8,25.6,29.88,WSW,256,0.0,3.1,15,0.00,,,0.00,WUHU216WMR968SP,2013-08-21 02:29:00,
2013-08-20 19:34:00,76.6,25.4,29.88,West,281,2.2,4.0,15,0.00,,,0.00,WUHU216WMR968SP,2013-08-21 02:34:00,
2013-08-20 19:39:00,76.5,25.3,29.88,WNW,299,2.2,4.5,15,0.00,,,0.00,WUHU216WMR968SP,2013-08-21 02:39:00,
2013-08-20 19:44:00,76.3,25.2,29.88,WNW,285,2.7,4.5,15,0.00,,,0.00,WUHU216WMR968SP,2013-08-21 02:44:00,
2013-08-20 19:49:00,76.1,25.0,29.88,WSW,245,4.0,6.3,15,0.00,,,0.00,WUHU216WMR968SP,2013-08-21 02:49:00,
2013-08-20 19:54:00,75.6,24.6,29.88,West,271,3.1,6.3,15,0.00,,,0.00,WUHU216WMR968SP,2013-08-21 02:54:00,
2013-08-20 19:59:00,75.4,21.0,29.88,SW,234,3.1,5.8,13,0.00,,,0.00,WUHU216WMR968SP,2013-08-21 02:59:00,
2013-08-20 20:04:00,75.0,20.7,29.88,West,263,2.2,5.8,13,0.00,,,0.00,WUHU216WMR968SP,2013-08-21 03:04:00,
2013-08-20 20:09:00,75.0,20.7,29.88,NNW,327,2.2,4.9,13,0.00,,,0.00,WUHU216WMR968SP,2013-08-21 03:09:00,
2013-08-20 20:14:00,74.5,20.3,29.88,NNW,332,0.0,4.9,13,0.00,,,0.00,WUHU216WMR968SP,2013-08-21 03:14:00,
2013-08-20 20:19:00,74.3,20.1,29.88,West,276,2.2,3.1,13,0.00,,,0.00,WUHU216WMR968SP,2013-08-21 03:19:00,
2013-08-20 20:24:00,74.1,20.0,29.88,WNW,291,3.1,5.4,13,0.00,,,0.00,WUHU216WMR968SP,2013-08-21 03:24:00,
2013-08-20 20:29:00,74.1,20.0,29.88,SW,228,0.0,5.4,13,0.00,,,0.00,WUHU216WMR968SP,2013-08-21 03:29:00,
2013-08-20 20:34:00,73.6,19.6,29.88,North,3,0.0,0.0,13,0.00,,,0.00,WUHU216WMR968SP,2013-08-21 03:34:00,
2013-08-20 20:39:00,73.2,21.0,29.88,SW,229,0.0,3.6,14,0.00,,,0.00,WUHU216WMR968SP,2013-08-21 03:39:00,
2013-08-20 20:44:00,73.0,20.9,29.88,SW,223,3.1,4.0,14,0.00,,,0.00,WUHU216WMR968SP,2013-08-21 03:44:00,
2013-08-20 20:49:00,72.9,20.8,29.88,WSW,258,2.2,4.0,14,0.00,,,0.00,WUHU216WMR968SP,2013-08-21 03:49:00,
2013-08-20 20:54:00,72.5,20.5,29.88,SSW,210,0.0,3.6,14,0.00,,,0.00,WUHU216WMR968SP,2013-08-21 03:54:00,
2013-08-20 20:59:00,72.3,20.3,29.88,SSE,168,0.0,4.0,14,0.00,,,0.00,WUHU216WMR968SP,2013-08-21 03:59:00,
2013-08-20 21:01:00,72.3,20.3,29.88,WSW,237,0.0,4.0,14,0.00,,,0.00,WUHU216WMR968SP,2013-08-21 04:01:00,
2013-08-20 21:06:00,71.8,19.9,29.88,WSW,243,0.0,4.0,14,0.00,,,0.00,WUHU216WMR968SP,2013-08-21 04:06:00,
2013-08-20 21:11:00,71.6,19.8,29.88,South,183,0.0,4.5,14,0.00,,,0.00,WUHU216WMR968SP,2013-08-21 04:11:00,
2013-08-20 21:16:00,71.8,19.9,29.88,West,276,0.0,4.9,14,0.00,,,0.00,WUHU216WMR968SP,2013-08-21 04:16:00,
2013-08-20 21:21:00,71.8,19.9,29.88,West,281,0.0,5.4,14,0.00,,,0.00,WUHU216WMR968SP,2013-08-21 04:21:00,
2013-08-20 21:26:00,71.4,19.6,29.88,NNW,342,0.0,5.4,14,0.00,,,0.00,WUHU216WMR968SP,2013-08-21 04:26:00,
2013-08-20 21:31:00,71.1,19.4,29.88,SW,218,0.0,3.1,14,0.00,,,0.00,WUHU216WMR968SP,2013-08-21 04:31:00,
2013-08-20 21:36:00,70.9,19.2,29.88,WSW,249,0.0,4.0,14,0.00,,,0.00,WUHU216WMR968SP,2013-08-21 04:36:00,
2013-08-20 21:41:00,70.5,18.9,29.88,WSW,249,0.0,4.0,14,0.00,,,0.00,WUHU216WMR968SP,2013-08-21 04:41:00,
2013-08-20 21:46:00,70.0,18.5,29.88,WSW,249,0.0,0.0,14,0.00,,,0.00,WUHU216WMR968SP,2013-08-21 04:46:00,
2013-08-20 21:51:00,69.6,19.8,29.91,West,272,0.0,2.7,15,0.00,,,0.00,WUHU216WMR968SP,2013-08-21 04:51:00,
2013-08-20 21:56:00,69.4,19.7,29.91,WNW,282,0.0,2.7,15,0.00,,,0.00,WUHU216WMR968SP,2013-08-21 04:56:00,
2013-08-20 22:01:00,68.7,19.1,29.91,WNW,282,0.0,0.0,15,0.00,,,0.00,WUHU216WMR968SP,2013-08-21 05:01:00,
2013-08-20 22:06:00,67.5,21.1,29.91,WNW,282,0.0,0.0,17,0.00,,,0.00,WUHU216WMR968SP,2013-08-21 05:06:00,
2013-08-20 22:11:00,66.6,20.4,29.91,WNW,282,0.0,0.0,17,0.00,,,0.00,WUHU216WMR968SP,2013-08-21 05:11:00,
2013-08-20 22:16:00,66.0,21.2,29.91,WNW,282,0.0,0.0,18,0.00,,,0.00,WUHU216WMR968SP,2013-08-21 05:16:00,
2013-08-20 22:21:00,65.3,20.6,29.91,WNW,282,0.0,0.0,18,0.00,,,0.00,WUHU216WMR968SP,2013-08-21 05:21:00,
2013-08-20 22:26:00,64.6,20.1,29.91,WNW,282,0.0,0.0,18,0.00,,,0.00,WUHU216WMR968SP,2013-08-21 05:26:00,
2013-08-20 22:31:00,64.2,19.7,29.91,NE,50,0.0,0.0,18,0.00,,,0.00,WUHU216WMR968SP,2013-08-21 05:31:00,
2013-08-20 22:36:00,63.7,19.3,29.91,NE,50,0.0,0.0,18,0.00,,,0.00,WUHU216WMR968SP,2013-08-21 05:36:00,
2013-08-20 22:41:00,63.3,19.0,29.91,NE,50,0.0,0.0,18,0.00,,,0.00,WUHU216WMR968SP,2013-08-21 05:41:00,
2013-08-20 22:46:00,63.0,18.8,29.91,NE,50,0.0,0.0,18,0.00,,,0.00,WUHU216WMR968SP,2013-08-21 05:46:00,
2013-08-20 22:51:00,62.6,22.0,29.91,NE,50,0.0,0.0,21,0.00,,,0.00,WUHU216WMR968SP,2013-08-21 05:51:00,
2013-08-20 22:56:00,62.2,21.7,29.91,NE,47,0.0,0.0,21,0.00,,,0.00,WUHU216WMR968SP,2013-08-21 05:56:00,
2013-08-20 23:01:00,62.1,24.7,29.91,NE,47,0.0,0.0,24,0.00,,,0.00,WUHU216WMR968SP,2013-08-21 06:01:00,
2013-08-20 23:06:00,61.7,24.4,29.91,NE,47,0.0,0.0,24,0.00,,,0.00,WUHU216WMR968SP,2013-08-21 06:06:00,
2013-08-20 23:11:00,61.5,24.2,29.91,NE,47,0.0,0.0,24,0.00,,,0.00,WUHU216WMR968SP,2013-08-21 06:11:00,
2013-08-20 23:16:00,61.2,24.0,29.91,NE,47,0.0,0.0,24,0.00,,,0.00,WUHU216WMR968SP,2013-08-21 06:16:00,
2013-08-20 23:21:00,60.8,23.6,29.91,NE,47,0.0,0.0,24,0.00,,,0.00,WUHU216WMR968SP,2013-08-21 06:21:00,
2013-08-20 23:26:00,60.4,23.3,29.91,NE,47,0.0,0.0,24,0.00,,,0.00,WUHU216WMR968SP,2013-08-21 06:26:00,
2013-08-20 23:31:00,60.3,23.2,29.91,NE,47,0.0,0.0,24,0.00,,,0.00,WUHU216WMR968SP,2013-08-21 06:31:00,
2013-08-20 23:36:00,59.9,22.9,29.91,NE,47,0.0,0.0,24,0.00,,,0.00,WUHU216WMR968SP,2013-08-21 06:36:00,
2013-08-20 23:41:00,59.7,22.7,29.91,NE,47,0.0,0.0,24,0.00,,,0.00,WUHU216WMR968SP,2013-08-21 06:41:00,
2013-08-20 23:46:00,59.4,23.4,29.91,NE,47,0.0,0.0,25,0.00,,,0.00,WUHU216WMR968SP,2013-08-21 06:46:00,
2013-08-20 23:51:00,59.2,23.2,29.91,NE,47,0.0,0.0,25,0.00,,,0.00,WUHU216WMR968SP,2013-08-21 06:51:00,
2013-08-20 23:56:00,58.8,22.9,29.91,NE,47,0.0,0.0,25,0.00,,,0.00,WUHU216WMR968SP,2013-08-21 06:56:00,